TimeCDT,TemperatureF,Dew PointF,Humidity,Sea Level PressureIn,VisibilityMPH,Wind Direction,Wind SpeedMPH,Gust SpeedMPH,PrecipitationIn,Events,Conditions,WindDirDegrees,DateUTC
12:15 AM,77.0,69.8,78,30.09,10.0,Calm,Calm,-,N/A,,Clear,0,2013-07-09 05:15:00
12:35 AM,77.0,69.8,78,30.09,10.0,Calm,Calm,-,N/A,,Clear,0,2013-07-09 05:35:00
12:55 AM,77.0,69.8,78,30.09,10.0,Calm,Calm,-,N/A,,Clear,0,2013-07-09 05:55:00
1:15 AM,77.0,69.8,78,30.09,10.0,Calm,Calm,-,N/A,,Clear,0,2013-07-09 06:15:00
1:35 AM,75.2,69.8,83,30.09,10.0,Calm,Calm,-,N/A,,Clear,0,2013-07-09 06:35:00
1:55 AM,75.2,69.8,83,30.10,10.0,Calm,Calm,-,N/A,,Clear,0,2013-07-09 06:55:00
2:15 AM,75.2,69.8,83,30.09,10.0,Calm,Calm,-,N/A,,Clear,0,2013-07-09 07:15:00
2:35 AM,75.2,68.0,78,30.10,10.0,Calm,Calm,-,N/A,,Clear,0,2013-07-09 07:35:00
2:55 AM,75.2,68.0,78,30.10,10.0,Calm,Calm,-,N/A,,Clear,0,2013-07-09 07:55:00
3:15 AM,75.2,68.0,78,30.09,10.0,Calm,Calm,-,N/A,,Clear,0,2013-07-09 08:15:00
3:35 AM,75.2,68.0,78,30.09,10.0,Calm,Calm,-,N/A,,Clear,0,2013-07-09 08:35:00
3:55 AM,73.4,68.0,83,30.09,10.0,South,3.5,-,N/A,,Clear,180,2013-07-09 08:55:00
4:15 AM,73.4,68.0,83,30.10,10.0,Calm,Calm,-,N/A,,Clear,0,2013-07-09 09:15:00
4:35 AM,73.4,68.0,83,30.10,10.0,South,4.6,-,N/A,,Clear,170,2013-07-09 09:35:00
4:55 AM,73.4,68.0,83,30.10,10.0,Calm,Calm,-,N/A,,Clear,0,2013-07-09 09:55:00
5:15 AM,73.4,68.0,83,30.11,10.0,Calm,Calm,-,N/A,,Clear,0,2013-07-09 10:15:00
5:35 AM,73.4,68.0,83,30.12,10.0,Calm,Calm,-,N/A,,Scattered Clouds,0,2013-07-09 10:35:00
5:55 AM,73.4,68.0,83,30.12,10.0,Calm,Calm,-,N/A,,Mostly Cloudy,0,2013-07-09 10:55:00
6:15 AM,73.4,68.0,83,30.13,10.0,Calm,Calm,-,N/A,,Scattered Clouds,0,2013-07-09 11:15:00
6:35 AM,73.4,68.0,83,30.13,9.0,Calm,Calm,-,N/A,,Partly Cloudy,0,2013-07-09 11:35:00
6:55 AM,73.4,68.0,83,30.13,10.0,Calm,Calm,-,N/A,,Mostly Cloudy,0,2013-07-09 11:55:00
7:15 AM,75.2,69.8,83,30.13,10.0,South,3.5,-,N/A,,Partly Cloudy,180,2013-07-09 12:15:00
7:35 AM,75.2,69.8,83,30.13,10.0,South,3.5,-,N/A,,Clear,190,2013-07-09 12:35:00
7:55 AM,78.8,71.6,78,30.14,10.0,SSW,5.8,-,N/A,,Clear,210,2013-07-09 12:55:00
8:15 AM,80.6,71.6,74,30.14,10.0,SW,5.8,-,N/A,,Clear,230,2013-07-09 13:15:00
8:35 AM,82.4,71.6,70,30.14,10.0,WSW,6.9,-,N/A,,Clear,240,2013-07-09 13:35:00
8:55 AM,84.2,71.6,66,30.14,10.0,West,9.2,-,N/A,,Clear,260,2013-07-09 13:55:00
9:15 AM,84.2,71.6,66,30.15,10.0,WSW,8.1,-,N/A,,Partly Cloudy,240,2013-07-09 14:15:00
9:35 AM,84.2,71.6,66,30.14,10.0,SW,9.2,-,N/A,,Partly Cloudy,230,2013-07-09 14:35:00
9:55 AM,87.8,71.6,58,30.14,10.0,WSW,8.1,-,N/A,,Partly Cloudy,250,2013-07-09 14:55:00
10:15 AM,87.8,71.6,58,30.14,10.0,WSW,10.4,-,N/A,,Partly Cloudy,250,2013-07-09 15:15:00
10:35 AM,89.6,71.6,55,30.14,10.0,West,9.2,-,N/A,,Partly Cloudy,260,2013-07-09 15:35:00
10:55 AM,89.6,71.6,55,30.14,10.0,WSW,6.9,-,N/A,,Mostly Cloudy,240,2013-07-09 15:55:00
11:15 AM,89.6,71.6,55,30.14,10.0,WSW,8.1,-,N/A,,Mostly Cloudy,250,2013-07-09 16:15:00
11:35 AM,91.4,71.6,52,30.13,10.0,WSW,5.8,-,N/A,,Partly Cloudy,250,2013-07-09 16:35:00
11:55 AM,91.4,71.6,52,30.13,10.0,South,9.2,-,N/A,,Partly Cloudy,190,2013-07-09 16:55:00
12:15 PM,93.2,71.6,49,30.12,9.0,West,6.9,-,N/A,,Mostly Cloudy,270,2013-07-09 17:15:00
12:35 PM,82.4,73.4,74,30.12,2.0,Calm,Calm,-,0.03,Rain,Rain,0,2013-07-09 17:35:00
12:55 PM,87.8,71.6,58,30.12,10.0,Calm,Calm,-,0.04,,Mostly Cloudy,0,2013-07-09 17:55:00
1:15 PM,91.4,71.6,52,30.11,10.0,WSW,4.6,-,N/A,,Mostly Cloudy,250,2013-07-09 18:15:00
1:35 PM,89.6,71.6,55,30.11,10.0,West,5.8,-,N/A,,Mostly Cloudy,270,2013-07-09 18:35:00
1:55 PM,93.2,71.6,49,30.10,10.0,SW,6.9,-,N/A,,Scattered Clouds,230,2013-07-09 18:55:00
2:15 PM,93.2,68.0,44,30.09,10.0,SSW,8.1,-,N/A,,Partly Cloudy,210,2013-07-09 19:15:00
2:35 PM,95.0,68.0,41,30.08,10.0,South,9.2,-,N/A,,Clear,190,2013-07-09 19:35:00
2:55 PM,93.2,66.2,41,30.08,10.0,SSW,11.5,16.1,N/A,,Scattered Clouds,200,2013-07-09 19:55:00
3:15 PM,93.2,68.0,44,30.07,10.0,South,10.4,-,N/A,,Mostly Cloudy,190,2013-07-09 20:15:00
3:35 PM,95.0,68.0,41,30.06,10.0,SSW,9.2,17.3,N/A,,Scattered Clouds,210,2013-07-09 20:35:00
3:55 PM,95.0,68.0,41,30.06,10.0,SSW,5.8,-,N/A,,Partly Cloudy,210,2013-07-09 20:55:00
4:15 PM,95.0,68.0,41,30.05,9.0,South,6.9,-,N/A,,Clear,190,2013-07-09 21:15:00
4:35 PM,95.0,68.0,41,30.05,10.0,SSW,10.4,-,N/A,,Partly Cloudy,200,2013-07-09 21:35:00
4:55 PM,95.0,68.0,41,30.04,10.0,SW,11.5,-,N/A,,Partly Cloudy,220,2013-07-09 21:55:00
5:15 PM,95.0,68.0,41,30.04,10.0,SSW,9.2,-,N/A,,Partly Cloudy,200,2013-07-09 22:15:00
5:35 PM,95.0,68.0,41,30.03,10.0,SSW,10.4,-,N/A,,Clear,210,2013-07-09 22:35:00
5:55 PM,95.0,66.2,39,30.02,10.0,SW,9.2,-,N/A,,Clear,220,2013-07-09 22:55:00
6:15 PM,95.0,68.0,41,30.02,10.0,SSW,6.9,-,N/A,,Clear,200,2013-07-09 23:15:00
6:35 PM,93.2,68.0,44,30.01,10.0,SSW,6.9,-,N/A,,Clear,210,2013-07-09 23:35:00
6:55 PM,93.2,66.2,41,30.01,10.0,SSW,6.9,-,N/A,,Clear,200,2013-07-09 23:55:00
7:15 PM,93.2,66.2,41,30.01,10.0,SSW,8.1,-,N/A,,Clear,210,2013-07-10 00:15:00
7:35 PM,91.4,66.2,43,30.01,10.0,South,4.6,-,N/A,,Clear,190,2013-07-10 00:35:00
7:55 PM,89.6,66.2,46,30.02,10.0,South,4.6,-,N/A,,Clear,190,2013-07-10 00:55:00
8:15 PM,87.8,68.0,52,30.02,10.0,South,3.5,-,N/A,,Clear,180,2013-07-10 01:15:00
8:35 PM,86.0,68.0,55,30.01,10.0,South,4.6,-,N/A,,Clear,170,2013-07-10 01:35:00
8:55 PM,84.2,68.0,58,30.01,10.0,South,3.5,-,N/A,,Clear,180,2013-07-10 01:55:00
9:15 PM,82.4,69.8,66,30.02,10.0,South,3.5,-,N/A,,Clear,180,2013-07-10 02:15:00
9:35 PM,82.4,71.6,70,30.02,10.0,Calm,Calm,-,N/A,,Clear,0,2013-07-10 02:35:00
9:55 PM,78.8,71.6,78,30.02,10.0,Calm,Calm,-,N/A,,Clear,0,2013-07-10 02:55:00
10:15 PM,78.8,69.8,74,30.02,10.0,Calm,Calm,-,N/A,,Clear,0,2013-07-10 03:15:00
10:35 PM,78.8,69.8,74,30.03,10.0,Calm,Calm,-,N/A,,Clear,0,2013-07-10 03:35:00
10:55 PM,77.0,69.8,78,30.03,10.0,Calm,Calm,-,N/A,,Clear,0,2013-07-10 03:55:00
11:15 PM,77.0,69.8,78,30.03,10.0,Calm,Calm,-,N/A,,Clear,0,2013-07-10 04:15:00
11:35 PM,77.0,69.8,78,30.03,10.0,Calm,Calm,-,N/A,,Clear,0,2013-07-10 04:35:00
11:55 PM,75.2,68.0,78,30.04,10.0,Calm,Calm,-,N/A,,Clear,0,2013-07-10 04:55:00